Wind_Speed
18 18 22 24 23 22 23 26 26 25 22 16 20 29 25 24 31 34 36 38 41 37 27 26 31 30 32 32 31 31 29 31 33 33 33 30 30 30 29 30 29 27 28 30 28 26 26 24 22 21 20 19 19 18 18 18 18 18 18 17 15 15 13 13 11 11 12 10 9 9 10 11 12 14 16 17 19 20 21 21 22 22 23 24 25 25
19 22 25 25 22 21 22 24 25 27 30 20 16 30 28 24 32 33 35 38 38 35 27 28 32 28 29 32 31 33 32 31 33 33 33 33 33 32 30 28 27 25 24 25 23 20 20 20 19 19 17 17 17 18 19 18 17 17 16 14 13 13 12 11 10 10 11 11 12 13 13 14 15 17 18 20 22 22 23 23 23 23 24 25 25 26
19 25 26 23 21 21 22 24 25 28 34 27 17 27 26 22 35 33 33 39 37 35 30 30 34 29 28 30 29 31 32 32 33 34 34 33 34 36 34 30 28 28 25 22 22 20 19 17 16 16 15 15 16 18 18 17 16 16 15 13 13 13 12 12 12 12 13 14 15 16 17 17 18 20 21 23 24 24 24 24 24 24 24 24 24 25
20 24 23 22 21 21 23 24 25 27 32 31 19 19 20 22 36 33 32 36 36 35 33 33 34 32 30 29 29 30 29 30 31 33 35 35 34 33 33 32 30 30 26 23 23 21 19 16 15 15 15 15 17 18 19 17 16 15 14 14 14 14 14 14 14 15 15 16 17 18 19 20 21 21 22 22 23 23 23 23 23 24 24 25 25 26
22 21 17 18 20 22 22 22 25 26 31 34 25 16 16 21 31 34 35 35 34 32 34 36 30 25 27 28 29 30 29 30 30 30 32 32 33 31 30 30 29 28 25 23 24 22 19 16 14 14 14 16 18 19 19 18 18 17 17 16 16 16 15 15 15 16 17 18 19 20 21 21 21 21 21 21 22 22 23 24 24 25 25 26 26 27
24 21 15 12 16 21 22 22 24 25 30 34 27 18 15 17 26 36 38 37 35 30 33 36 21 10 19 26 27 31 31 31 31 30 30 28 28 28 27 28 27 24 24 24 24 22 19 17 15 15 15 17 18 19 19 19 19 19 19 19 18 16 16 16 17 18 19 20 21 21 21 21 20 20 21 21 21 22 22 22 22 23 23 23 24 24
21 20 18 12 10 17 21 22 22 23 28 28 21 20 17 15 23 35 39 37 34 31 33 34 19 6 14 23 25 29 30 31 32 31 32 31 29 28 29 31 29 27 27 27 26 24 21 19 18 17 18 19 20 20 20 20 20 20 19 18 17 16 17 17 18 18 19 19 19 20 20 19 19 19 20 20 20 20 20 20 20 21 21 21 22 23
19 17 21 17 10 14 20 22 21 20 26 27 19 20 20 18 21 31 37 34 31 32 30 29 25 13 13 20 23 25 28 30 32 32 32 33 31 31 32 33 33 33 32 30 28 26 23 22 21 20 22 23 23 22 22 21 22 21 19 17 15 15 17 17 17 17 17 17 17 17 17 17 17 17 17 18 18 19 19 20 20 21 22 22 23 24
16 13 20 20 13 15 22 22 19 20 28 29 16 16 24 24 21 27 31 29 31 30 19 19 24 12 9 20 23 23 26 28 31 32 32 32 31 31 32 32 33 33 32 31 29 27 25 24 23 23 24 24 24 23 23 23 22 20 17 16 15 15 15 15 15 15 15 15 15 15 15 15 15 15 16 17 17 18 19 20 21 22 23 24 25 26
10 10 15 20 16 16 20 19 17 22 31 27 13 13 25 25 21 21 21 23 29 22 11 16 21 8 5 21 27 26 28 29 30 31 31 31 31 31 31 31 31 30 29 29 28 27 27 26 25 25 24 23 22 21 20 20 18 16 14 14 13 13 12 12 12 12 12 12 12 13 13 14 15 15 16 17 18 19 20 21 22 23 24 25 27 28
8 8 14 20 18 13 15 16 17 24 31 28 15 15 25 24 23 18 14 20 20 10 7 15 19 10 3 17 30 31 30 30 28 28 29 30 30 29 28 27 27 27 27 27 27 26 25 25 24 22 19 18 16 16 15 14 13 13 12 12 11 11 10 10 10 10 11 12 12 13 13 14 15 16 18 19 19 20 21 22 23 24 25 27 28 30
10 7 12 18 16 11 13 17 19 24 32 30 19 17 23 18 18 16 11 14 8 2 7 11 13 11 3 10 24 29 28 27 27 26 26 28 28 27 26 26 26 26 24 22 20 18 16 15 14 13 11 10 10 11 11 10 11 10 10 10 10 10 9 10 10 11 12 12 13 14 14 15 16 17 19 20 21 21 22 23 24 25 27 28 30 32
13 9 9 14 14 13 15 17 20 23 32 30 20 19 20 8 9 8 3 5 2 2 8 10 10 8 5 7 14 23 26 24 24 24 23 23 24 23 23 23 22 20 17 13 11 10 8 7 7 7 7 7 8 8 8 9 9 10 10 10 10 10 10 10 11 11 12 13 13 14 15 16 18 19 20 21 22 23 24 25 27 28 30 32 34 35
11 8 11 15 14 15 17 19 22 25 31 29 20 19 15 2 4 5 1 2 1 3 10 13 10 4 6 8 11 19 24 21 20 21 22 21 20 20 20 18 17 15 13 12 12 11 9 7 5 5 6 7 8 9 9 10 11 11 11 10 10 10 10 10 11 11 12 13 15 16 17 18 19 20 22 23 25 26 28 29 31 32 34 35 36 37
8 5 13 18 14 17 20 20 25 27 29 28 20 15 10 3 4 4 2 2 2 6 11 13 9 4 8 11 12 18 23 23 22 22 23 23 21 19 17 16 15 15 15 15 14 11 7 6 6 7 9 11 12 12 13 13 13 12 11 10 10 10 11 11 12 13 14 15 16 18 19 20 21 23 24 26 27 29 30 32 33 35 35 36 37 38
9 4 13 18 13 18 22 21 25 24 22 23 20 13 4 2 5 7 5 6 9 9 7 8 7 8 11 14 15 17 21 24 24 24 24 22 21 20 18 18 18 19 19 17 14 11 10 10 11 12 14 16 16 15 14 14 13 12 11 10 11 11 12 13 13 15 16 17 18 20 21 23 24 25 27 28 30 31 32 33 34 35 36 36 37 38
6 5 13 17 15 20 22 22 26 21 15 18 19 11 2 2 5 10 11 11 13 6 1 4 5 8 9 12 17 20 22 25 26 26 25 23 22 22 21 21 22 22 21 18 16 15 15 15 15 17 18 18 17 15 14 13 12 12 11 11 12 13 13 14 15 16 18 19 20 22 23 25 26 27 29 30 31 32 33 33 34 35 36 36 37 37
7 12 14 15 17 21 21 20 22 16 11 15 16 10 5 6 8 9 8 7 7 2 2 3 5 8 7 10 19 25 25 26 27 26 25 25 25 26 25 26 26 25 23 21 21 19 18 18 18 18 18 17 16 14 14 13 12 12 12 12 13 14 15 16 17 18 20 21 22 24 25 26 27 28 29 30 31 32 33 33 34 35 36 36 37 37
14 14 11 15 19 20 20 19 15 12 13 14 13 10 8 7 8 12 9 4 4 2 1 2 5 11 16 17 21 27 26 25 26 26 26 26 27 29 30 29 29 28 25 23 21 19 19 19 18 18 17 17 16 15 14 14 13 13 13 14 14 15 16 17 19 20 22 23 24 26 26 27 28 29 30 30 31 32 33 33 34 35 35 36 36 36
16 11 9 17 21 18 20 20 13 13 14 13 12 12 8 6 10 14 11 7 7 3 0 1 3 10 23 23 21 23 23 23 24 25 25 27 28 29 29 30 29 27 24 22 20 19 19 19 19 18 18 17 17 16 15 15 14 14 15 15 16 17 18 20 21 23 24 25 26 27 28 29 29 30 31 31 32 33 33 34 34 34 35 35 36 36
14 13 15 19 20 17 19 19 14 13 13 12 16 13 5 7 15 14 9 10 10 5 3 3 1 9 19 21 20 21 21 24 24 22 23 25 26 28 28 29 28 26 24 22 21 20 20 19 19 19 19 19 18 17 17 16 16 16 16 17 18 19 21 22 24 25 26 27 28 29 29 30 30 31 32 32 32 33 33 34 34 35 35 36 36 37
13 19 23 22 20 16 15 14 11 10 12 13 16 12 4 11 19 12 5 8 9 6 7 6 3 9 14 15 19 23 24 26 25 22 22 24 25 27 27 27 27 26 25 24 22 21 21 20 20 20 20 20 19 18 18 18 18 18 19 19 20 22 23 25 26 27 27 28 29 30 30 31 31 31 32 32 33 33 33 34 34 35 36 37 37 38
17 21 23 20 18 16 12 10 8 9 12 13 15 11 6 13 18 8 2 11 11 8 10 7 2 9 15 17 21 26 27 27 25 24 23 24 25 26 26 27 28 28 27 26 24 22 21 21 22 22 22 21 20 19 19 19 19 20 21 21 23 24 26 27 27 28 28 29 30 30 31 31 31 32 32 33 33 33 34 35 36 37 37 38 39 39
22 21 20 17 13 11 9 8 9 10 11 12 15 14 8 14 15 3 2 14 16 11 9 5 1 9 18 22 24 27 29 28 28 28 25 24 25 26 26 28 28 29 28 27 25 24 24 24 23 23 22 21 20 20 20 20 21 22 23 24 26 27 28 28 28 28 29 30 30 31 31 31 32 32 33 33 34 35 35 36 37 38 39 39 40 40
18 19 22 17 8 4 3 5 8 11 12 11 14 14 10 13 15 5 2 13 14 10 11 7 3 7 15 24 27 28 30 31 32 31 29 27 26 25 26 27 27 28 28 27 26 25 25 24 23 22 22 22 21 21 21 22 23 24 25 26 28 28 28 28 28 29 30 30 31 31 31 32 32 33 34 34 35 36 37 38 39 39 40 40 40 41
14 18 21 13 4 2 4 5 8 14 15 13 14 15 12 14 14 7 7 14 11 10 13 10 5 6 11 21 27 27 28 30 31 32 31 30 28 27 26 26 28 29 28 27 26 24 23 23 23 23 22 22 22 22 23 23 25 26 27 28 28 28 28 29 29 30 30 31 31 32 32 32 33 33 34 35 36 37 38 38 39 39 40 41 41 42
17 19 15 10 6 4 6 8 12 17 18 15 15 16 14 14 14 9 8 10 9 10 15 13 9 8 9 16 24 26 26 26 28 30 30 30 30 29 29 29 29 29 28 27 25 24 24 24 23 23 23 23 23 24 25 25 26 27 28 28 28 28 28 29 30 30 30 31 32 32 32 33 33 34 35 35 36 37 38 38 39 39 40 41 42 43
18 16 9 9 8 5 5 8 13 17 17 15 14 14 13 13 13 12 10 9 8 8 11 13 12 11 9 11 17 21 21 21 23 24 24 26 27 28 29 30 30 30 29 28 27 26 25 25 25 24 24 24 25 25 26 27 27 28 28 28 28 28 29 29 30 30 31 31 32 32 32 33 34 34 35 36 36 37 38 38 39 40 41 42 43 44
13 9 6 6 7 6 6 8 12 16 15 13 11 12 13 13 13 13 12 12 12 10 10 11 12 13 11 9 12 14 15 16 17 17 19 20 23 25 28 29 29 30 29 29 27 26 26 26 25 25 25 26 26 27 27 28 28 28 27 27 28 28 29 30 30 31 31 31 31 32 32 33 34 35 36 36 37 37 38 38 39 40 41 43 44 45
8 5 4 5 6 7 6 8 12 13 12 11 11 11 13 13 13 13 13 13 12 12 12 11 11 11 12 12 13 14 15 16 17 18 20 22 23 24 26 27 27 27 27 26 26 25 25 25 26 26 26 26 26 27 27 28 27 27 27 27 28 29 30 30 31 31 31 31 31 32 33 34 35 36 36 37 37 37 38 39 40 41 42 43 44 45
10 7 5 5 6 6 5 7 9 10 10 11 12 12 13 14 14 14 14 14 14 14 14 14 13 13 14 15 16 17 18 20 22 23 23 23 24 24 25 25 26 26 25 25 24 24 25 25 26 27 26 26 26 27 27 27 27 27 27 29 29 30 30 31 31 31 31 31 32 33 34 35 36 37 37 37 38 38 39 40 41 42 43 44 45 46
9 9 9 8 8 8 7 7 8 9 11 13 16 17 16 16 16 16 17 17 17 16 16 17 17 15 14 15 16 17 18 19 22 23 24 24 24 25 25 24 24 24 24 24 24 24 25 26 26 27 26 26 27 28 28 28 28 28 29 30 30 31 31 31 31 30 31 32 33 35 36 37 37 37 38 38 38 38 39 40 41 43 43 44 45 45
7 10 10 8 7 8 9 8 8 7 7 11 17 19 19 18 18 18 19 19 19 19 19 19 17 14 14 15 15 15 16 17 18 19 20 21 22 22 23 23 23 23 23 24 25 25 26 27 27 27 28 28 29 29 29 29 29 29 30 30 31 31 30 30 30 30 32 33 35 36 37 37 38 38 38 38 38 39 40 41 42 43 44 45 45 46
4 5 6 4 2 4 8 8 6 5 5 9 13 15 18 20 20 20 20 19 18 20 20 18 17 15 15 15 15 15 15 15 16 17 19 20 21 22 23 23 24 24 25 26 26 27 27 28 28 29 30 30 30 30 29 29 29 29 30 30 30 30 29 30 30 32 33 35 36 37 38 38 38 37 38 38 38 39 40 42 43 44 45 45 46 47
3 3 4 3 3 3 5 4 2 4 6 9 12 13 15 17 18 20 21 20 21 21 20 19 17 15 15 16 16 17 16 16 17 19 20 21 21 22 22 23 23 24 25 25 25 26 26 27 28 28 28 29 29 29 29 28 28 29 30 30 30 29 29 30 31 33 35 36 37 38 38 38 38 38 38 38 39 40 41 43 44 45 46 46 47 47
6 5 5 5 4 3 2 3 4 7 9 11 12 13 15 16 17 19 21 21 22 21 20 19 16 15 17 18 18 18 19 19 20 20 20 21 21 21 21 21 21 22 22 23 23 24 25 26 26 27 28 29 30 29 28 28 29 30 30 30 29 29 30 32 33 34 36 37 38 38 38 38 38 38 38 39 40 41 42 43 45 46 46 47 47 47
9 9 9 8 7 6 6 8 11 15 16 15 14 13 14 16 16 17 19 19 18 19 20 19 17 17 18 19 19 20 20 21 23 22 21 21 21 21 21 20 21 22 22 22 23 24 25 26 27 28 29 29 29 28 27 28 30 30 29 29 29 31 32 33 34 36 37 37 38 39 38 38 38 39 39 40 41 41 42 44 45 46 47 47 47 47
11 11 11 10 9 10 10 8 7 7 8 10 10 10 12 15 14 15 19 18 15 16 20 20 18 19 20 20 21 20 21 24 23 17 15 18 19 20 21 21 22 23 23 23 24 24 25 26 26 27 28 29 29 28 28 29 30 30 30 30 31 32 33 33 35 37 37 37 38 39 38 38 39 39 40 41 41 42 43 44 46 47 47 47 47 47
12 12 12 12 11 12 11 6 5 7 7 6 5 5 6 10 12 13 16 17 13 14 18 18 16 17 19 20 20 20 22 24 18 10 12 19 20 19 20 20 21 22 22 23 23 23 24 25 26 27 28 29 28 27 28 30 31 31 31 31 32 34 34 34 36 38 37 37 38 38 38 38 39 40 41 42 42 43 44 45 46 47 47 48 48 48
13 13 14 15 14 14 13 10 11 13 10 7 8 8 7 9 9 7 8 9 9 10 12 12 12 14 16 18 19 20 21 20 14 12 19 22 20 18 19 19 20 21 22 23 23 23 24 26 27 28 29 28 27 27 30 32 33 32 31 32 34 34 33 35 37 37 36 37 38 38 38 39 40 41 42 42 43 43 44 45 46 47 47 48 48 48
13 13 15 17 17 17 17 15 17 19 15 13 15 15 14 12 10 9 8 9 9 10 11 11 11 13 15 17 18 18 17 16 17 19 21 20 19 19 20 20 21 22 23 24 24 25 27 28 28 28 28 28 28 30 32 33 33 33 32 33 34 33 33 36 38 36 36 37 37 38 38 39 40 41 42 43 43 44 45 46 47 47 48 48 48 47
12 11 13 16 17 18 18 17 18 19 15 14 17 18 16 15 14 12 12 12 12 13 13 13 13 14 14 16 17 17 17 19 21 22 22 21 21 21 22 22 23 24 24 25 25 26 28 28 28 29 29 29 31 32 33 34 34 33 33 34 33 33 35 37 37 36 36 37 37 37 38 40 41 41 42 43 44 44 45 46 47 47 48 48 48 47
12 11 12 14 13 14 16 15 11 11 9 8 11 15 16 16 15 14 14 14 14 14 14 15 16 16 17 19 19 20 21 22 23 23 23 23 22 22 23 24 24 25 25 26 26 27 28 28 29 30 30 31 32 33 34 35 34 34 34 34 33 34 37 37 36 36 36 37 37 38 39 40 41 42 43 44 44 45 46 47 47 48 48 48 48 48
17 16 16 16 14 13 15 13 9 9 8 6 7 11 13 14 16 17 18 19 20 20 20 21 21 20 21 22 22 23 23 23 23 24 24 23 23 23 24 25 25 26 26 27 27 28 29 29 30 30 31 33 34 35 35 35 35 34 34 33 33 36 38 37 36 36 36 36 37 38 39 40 41 42 43 44 45 46 46 47 47 47 47 48 48 48
17 17 17 19 19 19 20 19 18 19 19 18 19 19 21 22 22 23 23 23 23 23 22 22 21 22 23 23 23 24 23 22 23 24 23 23 24 24 25 26 26 27 27 27 28 29 30 30 30 31 33 34 35 36 36 35 35 35 33 33 35 37 37 35 35 35 35 36 37 38 39 41 42 43 44 45 45 46 47 47 47 47 47 47 48 47
19 19 20 21 23 25 26 24 23 23 22 22 22 22 23 24 23 23 23 22 21 22 23 23 23 24 24 24 24 24 23 22 23 23 23 24 24 25 26 26 27 27 28 28 29 30 30 31 32 33 34 34 34 35 35 35 35 34 33 34 36 36 35 35 35 35 35 36 37 38 40 41 42 43 44 45 46 47 47 47 47 47 46 47 47 46
23 23 25 26 27 27 24 19 16 16 16 18 19 19 19 21 22 23 24 25 25 26 26 25 25 25 24 24 23 22 22 23 24 24 25 26 26 26 26 27 28 28 29 29 29 30 31 32 33 33 33 33 34 34 34 35 35 34 34 36 36 35 35 34 34 34 35 36 37 39 40 41 43 44 44 45 46 47 47 47 47 47 46 46 46 45
23 24 25 26 28 28 27 23 22 23 23 23 25 25 24 24 25 27 29 29 28 27 26 25 24 24 24 24 24 24 25 27 27 28 28 28 29 29 28 29 29 29 30 30 31 32 32 33 33 32 32 32 33 34 34 35 35 35 35 36 36 35 34 34 34 34 35 36 38 39 41 42 43 44 44 45 46 47 47 47 47 47 46 45 45 44
29 30 29 29 30 31 30 25 23 24 24 22 23 26 26 25 25 26 26 26 25 24 24 24 26 27 28 28 28 30 30 30 30 30 30 30 30 30 30 31 31 31 31 32 32 32 33 33 33 32 32 32 32 34 35 35 35 35 36 36 35 35 34 34 34 35 35 36 38 40 41 42 43 44 44 45 46 46 46 47 47 47 46 44 44 44
34 33 32 32 32 30 26 21 22 25 25 21 22 24 25 24 25 25 25 25 25 24 26 28 30 31 32 32 33 34 33 32 31 32 32 32 31 31 31 32 33 33 33 33 33 34 34 34 33 32 32 32 33 34 35 35 35 36 36 36 35 34 33 34 34 35 35 37 38 40 42 43 43 44 45 45 46 46 46 46 46 46 45 44 42 42
33 33 31 31 31 28 24 24 28 32 29 25 25 29 29 28 27 25 23 24 25 25 28 30 31 32 33 33 34 35 35 34 34 35 35 34 32 32 33 34 34 34 34 35 35 36 35 34 33 33 32 32 33 34 35 35 36 36 37 36 34 33 33 34 34 35 36 37 39 41 42 42 43 44 45 45 46 46 46 45 44 44 44 44 43 41
Wind_Direction
253 251 246 245 242 235 225 221 218 212 213 209 209 216 210 199 200 197 195 197 202 199 181 185 191 184 184 181 183 189 189 198 205 207 208 207 204 201 201 205 203 196 196 196 193 189 184 180 181 186 192 198 199 200 205 208 208 208 207 208 213 221 227 233 237 243 252 259 261 266 270 271 272 275 280 284 287 288 289 290 289 290 291 292 293 293
248 246 247 248 244 235 227 222 218 215 219 225 212 211 215 205 195 194 193 194 203 199 168 173 191 184 184 186 186 192 194 198 203 204 204 205 208 208 201 200 202 203 206 204 202 197 189 188 191 194 198 205 209 210 214 216 214 217 220 223 229 233 236 235 236 242 249 257 261 265 269 271 274 277 279 281 283 284 285 286 286 287 288 288 289 289
241 243 247 244 237 233 227 223 221 218 224 233 218 213 224 197 178 179 184 187 198 198 171 171 191 187 182 188 188 190 192 195 201 203 203 205 210 210 209 209 207 206 208 207 208 207 202 202 202 204 206 210 217 220 223 225 221 221 223 227 230 235 241 243 245 251 256 261 265 268 271 272 274 275 276 278 280 282 282 283 284 284 285 285 286 286
236 242 244 235 230 230 226 223 223 222 229 232 221 223 231 184 167 168 170 178 190 196 185 178 185 183 179 185 187 188 189 192 198 202 202 203 203 204 208 209 206 208 212 210 208 208 209 212 212 212 215 218 221 223 225 225 221 218 218 222 226 230 237 243 247 254 259 263 267 270 272 272 274 274 275 276 277 279 280 281 281 281 282 281 282 283
238 240 242 234 227 225 225 225 224 225 230 231 227 228 220 188 175 170 170 176 178 186 194 186 175 171 175 182 185 187 189 191 194 197 199 199 199 203 207 208 208 210 211 209 208 210 211 217 222 224 226 225 222 218 218 218 217 218 220 224 228 232 237 243 249 255 261 266 269 270 270 269 269 270 272 275 277 279 279 280 280 279 279 279 280 281
242 237 236 238 228 223 225 223 222 226 228 232 232 213 203 204 187 172 173 174 160 161 184 183 169 156 178 184 187 189 190 192 196 199 203 205 206 212 216 215 214 211 208 210 212 215 218 225 234 237 235 232 227 220 218 218 220 222 225 227 230 235 242 250 257 263 266 267 267 266 265 266 268 271 275 278 280 280 280 280 280 280 280 281 282 283
245 234 228 236 234 223 223 221 219 223 226 233 226 195 198 223 196 175 174 172 155 154 171 178 176 161 180 191 194 194 195 198 204 208 214 218 219 223 228 229 228 223 217 215 216 222 232 241 245 242 236 233 231 228 226 226 229 230 230 230 232 238 248 256 261 264 264 263 263 265 266 268 271 273 275 276 277 278 280 282 284 285 287 289 290 291
246 233 222 225 226 219 220 218 214 214 221 225 214 192 200 216 197 178 175 173 164 163 168 178 186 176 176 194 198 199 201 203 208 213 219 223 225 227 230 231 232 229 225 222 225 232 242 248 248 243 236 233 232 231 231 233 234 233 232 234 238 245 252 257 260 262 261 262 263 265 266 267 268 270 272 274 277 281 284 287 290 292 294 295 297 298
245 230 220 219 218 216 212 210 208 208 211 212 210 200 201 207 196 172 170 173 168 164 161 174 183 177 178 193 199 204 205 206 208 213 219 222 224 226 227 228 228 229 228 229 233 239 244 245 244 243 239 235 233 232 232 235 234 232 233 238 243 247 251 254 255 256 256 257 259 261 263 266 269 272 276 279 282 286 289 291 293 295 297 298 300 302
235 220 215 216 222 220 205 200 203 205 204 203 208 196 191 200 198 173 165 170 166 160 151 162 172 171 189 195 197 203 209 212 211 211 217 221 224 227 228 228 229 230 233 236 240 242 241 239 238 237 233 230 230 231 232 232 232 233 234 237 240 242 245 246 247 249 252 254 257 261 265 270 274 278 282 285 289 292 294 296 298 299 301 302 303 304
212 204 207 212 222 220 200 194 197 203 202 203 213 188 176 187 197 194 175 158 154 152 150 161 168 162 188 204 203 207 215 219 217 216 218 220 223 228 232 234 235 236 236 237 238 236 234 231 228 226 225 224 226 228 229 230 230 231 230 231 232 234 236 239 243 247 252 257 261 266 271 276 280 284 288 291 293 295 297 298 300 301 302 303 304 305
208 206 209 209 212 203 194 193 195 204 204 208 222 184 162 167 182 196 192 154 136 99 154 163 168 160 167 212 207 211 215 218 223 226 223 221 223 228 233 236 236 235 233 233 234 233 231 228 221 218 219 222 224 227 228 228 229 228 228 228 229 231 235 240 245 250 256 262 268 273 278 283 286 289 291 293 294 295 296 297 298 300 301 303 304 304
209 217 211 203 202 191 189 192 193 201 203 213 224 177 153 142 157 177 206 155 100 74 154 168 168 170 203 209 205 209 210 213 220 222 222 223 225 227 230 233 232 229 226 224 221 214 204 195 186 185 190 195 200 206 210 213 217 220 224 227 230 236 242 248 256 262 268 273 277 281 285 288 290 292 293 294 294 295 295 296 297 299 301 302 303 304
200 217 205 195 198 188 186 189 188 195 201 212 219 180 159 115 137 152 88 107 94 123 156 168 163 166 210 203 199 203 208 213 214 213 213 213 215 218 222 224 222 218 214 203 186 174 168 166 169 177 186 194 195 198 205 211 215 219 222 228 237 247 254 261 268 273 277 281 284 286 288 290 291 292 293 294 295 296 296 297 299 300 301 302 303 303
176 205 201 191 190 184 182 184 186 193 200 210 221 202 177 108 114 156 188 153 119 127 149 164 169 191 205 201 196 196 206 211 209 209 208 205 203 203 204 205 205 203 195 184 175 175 186 199 209 213 213 215 211 210 215 220 223 226 230 238 248 256 263 268 273 277 280 282 285 286 288 290 291 293 294 295 296 297 298 299 299 301 301 302 303 303
180 185 189 184 187 181 176 179 186 192 200 209 223 226 208 79 98 101 100 116 111 110 139 165 187 216 213 210 202 196 204 207 206 207 206 205 202 199 199 199 196 189 182 180 185 196 208 212 214 215 217 218 215 214 217 223 228 233 239 246 252 258 263 269 274 278 281 283 285 287 289 291 293 295 296 297 297 298 299 299 300 301 302 302 304 305
180 143 169 178 183 177 173 177 184 190 200 202 210 219 198 139 137 104 91 108 113 103 156 178 209 225 216 216 210 204 205 204 205 207 205 205 205 202 197 188 183 181 183 191 200 207 210 211 212 213 216 218 217 217 219 224 231 236 242 249 254 260 265 270 275 278 281 283 285 288 290 292 294 295 296 296 297 298 298 299 300 301 302 303 304 305
143 136 158 172 171 168 170 177 183 194 205 190 195 205 163 140 147 129 106 106 115 109 243 205 242 233 209 214 211 206 206 204 203 203 201 201 200 195 186 179 180 185 192 199 205 209 210 208 211 214 216 219 219 220 223 227 233 238 244 250 255 262 268 273 277 279 282 285 287 290 291 292 293 293 294 295 297 298 299 300 301 302 303 303 304 304
135 132 148 166 163 160 167 177 190 209 207 191 189 188 164 150 147 143 135 130 133 108 265 239 269 240 220 217 211 204 202 201 199 195 194 193 190 186 184 184 188 193 198 204 207 209 207 207 212 215 218 222 222 224 226 229 235 240 246 252 258 266 271 275 279 281 283 286 288 289 290 291 292 294 296 297 299 300 301 301 302 302 302 301 301 301
140 129 133 159 161 156 164 178 200 209 202 198 186 168 156 155 156 152 145 143 148 127 216 207 321 249 227 224 219 207 198 196 194 188 188 190 189 190 190 192 194 197 202 206 207 208 208 210 215 217 222 226 227 229 230 232 238 243 249 257 263 269 273 277 279 281 283 285 287 288 290 293 295 297 299 300 300 300 300 300 300 300 300 301 302 303
147 138 136 155 163 157 164 184 205 195 186 189 180 172 162 142 146 148 144 148 157 152 148 151 293 245 227 225 222 212 200 195 192 188 192 196 196 196 195 196 197 200 204 207 208 210 213 216 220 224 228 230 230 232 233 237 243 248 256 262 267 272 276 278 280 282 285 287 290 292 295 297 298 299 299 299 300 299 300 300 300 301 303 304 306 307
144 141 138 148 161 161 168 194 212 188 177 185 182 179 182 158 150 140 146 169 168 166 163 157 226 225 207 199 198 199 199 196 193 196 201 203 203 201 199 198 199 202 206 210 212 215 218 222 224 228 231 232 233 234 236 242 247 254 261 266 272 276 278 280 282 285 288 291 294 296 297 297 298 298 299 299 300 300 301 303 304 306 308 309 310 310
141 137 131 133 153 168 180 198 212 196 187 191 192 193 192 174 164 141 179 187 170 165 174 161 198 212 193 180 179 185 192 195 198 206 209 209 208 206 202 201 201 205 209 213 216 220 224 226 227 230 232 233 234 236 241 247 252 258 264 269 274 276 278 281 284 288 291 293 295 295 296 297 298 299 300 301 302 304 306 308 310 311 312 312 311 310
140 138 129 119 136 169 190 205 214 215 207 200 203 210 205 187 186 197 255 190 173 165 172 155 207 220 200 193 190 188 192 197 201 207 211 214 213 209 206 206 206 210 214 217 221 224 226 228 229 232 234 235 237 240 245 250 256 261 266 270 274 277 280 284 288 291 293 293 294 295 297 299 300 301 302 304 306 309 311 312 313 313 312 311 310 310
145 149 146 134 125 146 191 221 219 215 214 211 212 220 219 202 206 244 213 179 175 176 179 173 222 235 211 204 201 198 201 203 205 208 210 212 215 214 212 211 213 216 220 223 225 226 228 231 232 233 235 237 239 243 248 254 260 264 268 271 275 279 283 287 290 292 292 293 295 297 299 300 302 303 306 308 311 312 313 313 313 311 311 310 311 312
157 157 156 153 144 154 178 201 202 198 201 207 211 219 224 212 212 224 180 176 186 196 191 192 225 242 218 207 205 206 210 211 211 212 211 211 213 215 215 217 220 222 225 226 226 228 231 233 234 235 237 240 243 248 253 258 262 266 270 274 278 282 286 289 291 292 293 295 297 299 300 302 304 306 309 311 312 312 312 311 310 310 310 312 314 315
167 162 165 178 191 203 199 190 186 187 191 198 204 213 217 207 207 217 200 195 208 205 202 212 229 235 223 211 210 212 215 216 215 215 215 214 214 213 214 218 222 225 228 228 229 230 233 235 237 239 241 245 249 253 257 261 265 269 273 277 281 284 287 289 290 292 294 296 298 299 301 303 306 308 310 310 309 309 308 308 309 311 313 314 316 317
169 168 176 196 209 227 220 199 189 187 192 197 201 206 206 201 206 213 214 220 227 217 221 235 239 238 235 219 215 217 220 222 222 222 223 223 223 221 219 219 221 223 225 227 229 231 233 236 239 241 244 247 251 254 258 263 267 270 274 278 282 285 287 289 291 293 295 296 297 298 301 304 306 307 307 306 306 306 307 309 311 314 316 317 318 318
167 179 189 204 222 228 222 208 194 191 197 205 206 205 204 204 210 214 218 228 232 232 244 253 246 239 236 222 212 217 227 232 233 231 229 228 227 227 225 225 226 226 227 229 230 232 234 238 240 243 246 248 252 256 260 264 268 272 277 281 283 285 287 289 290 291 292 293 295 299 302 304 304 303 304 305 305 307 309 312 315 317 318 318 318 319
183 210 216 208 216 221 219 206 197 200 212 221 224 224 221 221 223 225 228 232 234 236 243 248 243 235 231 225 215 211 215 220 223 226 225 225 225 226 228 230 231 232 234 234 235 235 237 239 242 245 248 252 256 260 263 268 272 276 280 282 283 285 286 287 288 289 290 293 297 301 302 302 302 303 304 305 307 309 313 316 318 318 319 319 319 319
196 214 222 204 197 203 209 204 205 216 228 238 244 244 240 239 240 240 240 241 242 243 245 247 244 237 233 232 228 223 218 214 214 217 221 224 226 228 230 232 234 236 237 238 238 239 240 243 247 251 255 259 262 266 269 273 276 278 279 279 280 281 282 284 285 287 291 296 299 301 301 302 303 304 305 307 310 313 316 318 318 318 319 319 319 318
182 182 183 181 175 176 189 202 212 224 239 250 251 249 250 249 248 248 247 247 247 249 250 251 252 250 245 239 236 233 230 225 221 220 223 226 229 232 235 237 240 242 243 244 244 244 247 250 254 258 262 264 266 268 270 272 273 273 273 274 276 278 280 282 285 290 296 300 301 302 303 303 304 305 306 309 313 316 318 318 318 318 318 318 318 318
163 165 170 175 179 181 186 196 209 219 246 257 248 246 248 248 249 252 252 253 255 255 255 257 259 257 251 247 245 243 242 241 237 235 235 235 236 238 240 242 243 244 245 246 247 247 250 252 255 258 259 260 262 264 265 266 267 268 270 273 275 278 281 285 290 296 300 301 302 303 303 303 303 305 308 312 316 318 318 318 318 318 318 318 318 318
171 176 181 196 228 208 196 201 217 220 235 254 248 240 239 241 244 247 250 252 254 254 255 259 260 257 255 257 258 256 255 252 247 242 240 239 238 239 239 240 240 241 242 242 243 245 246 248 251 253 254 256 259 261 262 264 266 269 272 275 278 281 286 291 296 299 300 300 301 302 302 302 304 307 311 315 316 317 318 318 318 318 318 318 318 318
225 236 238 250 294 266 224 212 228 236 241 253 250 236 232 238 242 245 248 246 244 248 251 252 254 257 258 256 253 253 252 247 243 240 239 240 241 242 242 242 242 242 243 245 246 247 248 249 251 253 256 258 260 261 263 266 269 272 275 277 281 286 291 295 297 298 299 299 300 301 301 303 306 310 313 315 316 317 318 318 318 318 318 319 318 318
223 234 250 260 274 280 246 190 222 268 281 278 267 250 242 244 246 251 254 250 247 252 255 254 256 255 252 252 251 252 252 251 251 251 250 250 250 250 250 250 250 250 250 251 251 250 250 251 252 254 256 257 260 263 266 269 271 273 276 280 285 289 293 294 296 297 297 298 299 300 301 304 308 311 313 315 316 318 319 318 318 318 318 318 318 317
216 221 226 233 239 235 230 241 262 284 293 286 278 268 256 255 257 260 262 258 253 257 259 256 254 252 251 253 254 255 258 260 259 258 258 260 260 259 259 257 254 253 251 250 250 249 249 250 251 253 255 259 263 267 269 270 272 275 279 283 287 290 292 294 296 296 296 298 299 299 302 306 309 311 313 315 316 318 318 318 318 317 317 317 317 317
217 221 217 219 229 227 227 244 267 284 286 277 277 276 264 261 264 267 271 268 255 253 257 254 249 248 250 251 253 256 259 259 259 263 267 265 259 255 254 253 252 253 254 253 253 253 253 255 256 257 259 262 266 269 271 272 274 278 282 285 288 289 291 294 295 294 296 298 298 300 304 307 310 312 313 315 317 318 318 317 317 317 317 317 317 317
219 223 222 224 232 229 223 224 227 232 246 259 267 270 257 253 256 265 277 275 255 245 254 255 249 246 246 248 251 251 252 255 262 268 257 253 252 252 252 253 255 256 257 257 258 259 259 259 259 260 263 267 271 273 273 274 276 280 284 287 287 288 291 293 293 293 296 298 298 301 306 308 310 312 314 315 317 318 317 316 316 316 317 317 317 318
223 227 228 228 231 231 228 232 244 251 257 255 247 249 253 255 253 252 269 273 254 242 253 257 247 240 241 245 248 248 252 259 264 255 247 250 256 259 259 259 259 259 259 260 261 262 261 261 263 266 270 274 275 274 273 275 279 283 285 285 286 289 291 291 291 293 297 297 299 303 306 308 310 312 314 316 317 317 316 315 315 316 317 317 318 318
231 233 236 236 236 236 234 239 254 262 263 258 253 255 255 249 234 222 242 266 265 259 263 262 251 246 246 248 252 256 260 262 258 256 258 262 265 265 265 264 264 263 263 264 264 265 266 268 271 273 274 274 272 272 274 277 280 283 283 284 286 289 289 289 291 295 297 297 300 304 306 308 310 312 314 315 316 316 315 315 316 316 317 318 318 319
239 242 246 241 238 239 237 243 263 274 268 253 246 245 241 232 226 239 266 276 270 266 267 266 261 258 256 258 261 263 262 261 263 266 269 271 271 271 271 269 268 268 268 268 268 269 271 273 274 274 274 273 273 274 276 278 280 282 283 284 287 288 287 288 292 295 296 298 301 304 306 308 310 312 313 314 315 315 315 315 316 317 318 318 319 319
248 246 248 242 236 234 231 232 257 280 272 244 235 236 235 233 241 262 275 273 269 270 270 267 264 262 261 264 266 265 263 264 268 270 271 272 272 271 271 270 271 271 271 271 272 273 274 275 275 275 275 274 274 275 277 279 281 282 282 285 286 285 286 289 293 295 296 299 301 304 306 308 310 312 313 314 314 314 315 316 317 318 318 319 319 318
253 246 248 251 245 233 225 225 245 268 263 252 248 249 251 252 259 268 270 267 270 272 271 270 268 265 264 264 264 264 264 266 268 270 271 272 271 270 270 271 271 271 272 274 275 275 275 276 276 277 276 275 276 276 278 280 281 281 282 284 283 283 286 290 292 294 296 299 301 304 306 308 310 312 313 313 314 314 315 316 317 318 319 319 318 318
256 254 256 258 255 252 251 256 265 271 272 272 272 273 274 273 270 269 268 268 270 271 270 271 269 266 265 264 263 265 267 269 270 271 270 270 269 269 269 270 271 273 274 274 275 275 276 276 276 275 275 275 276 277 278 279 279 280 281 281 280 282 286 289 291 294 296 299 301 304 306 308 310 311 312 313 313 314 315 317 317 318 319 318 318 317
261 263 263 263 263 265 268 270 270 271 274 276 275 273 272 271 272 273 271 270 270 270 269 268 269 269 270 269 269 270 271 271 270 269 269 269 268 269 270 272 274 275 275 276 276 277 276 275 275 275 276 277 278 279 279 279 279 279 280 279 280 283 287 289 292 295 297 299 302 304 306 308 309 310 311 312 313 314 316 317 318 318 318 318 317 316
271 268 266 267 267 268 272 275 274 272 273 276 278 276 271 271 273 273 272 270 269 270 271 273 274 275 276 275 275 274 272 271 270 269 270 271 272 273 275 276 277 278 278 279 278 277 277 277 277 278 279 279 279 279 279 278 279 279 278 278 281 284 287 289 292 294 296 299 302 303 305 307 308 310 311 312 313 315 316 317 317 318 318 317 316 316
275 270 268 269 269 270 274 278 278 278 278 278 279 277 274 272 271 270 269 270 271 273 276 277 277 277 277 277 277 274 271 271 271 272 274 275 277 278 279 279 279 279 279 279 278 278 279 280 280 281 281 281 280 278 278 278 279 278 277 278 282 285 287 290 292 294 297 300 302 303 304 306 308 310 311 312 313 315 316 316 317 317 317 317 316 316
271 269 268 270 273 276 279 286 290 287 279 274 274 274 271 270 270 269 270 272 274 276 278 278 277 276 275 274 274 273 273 274 275 276 276 277 279 281 281 281 280 279 278 278 278 279 279 280 281 282 283 282 280 278 278 278 278 277 277 279 281 284 287 289 291 294 297 299 300 302 304 306 308 310 311 312 313 314 315 316 316 317 317 316 316 316
271 273 273 276 279 280 281 289 296 289 278 270 269 271 270 270 270 272 274 277 278 278 278 277 277 276 276 276 275 275 275 276 277 277 277 279 281 282 281 280 279 279 279 279 279 279 280 280 282 282 282 282 280 279 278 278 277 277 277 278 281 284 286 288 291 294 297 299 300 301 303 306 308 309 310 311 313 314 314 315 316 316 316 315 315 314
278 282 283 282 282 282 284 290 291 286 280 274 267 263 264 268 270 272 274 275 275 274 275 276 278 280 281 280 279 277 277 277 277 276 278 280 282 281 279 278 279 280 280 280 280 280 281 282 282 283 283 282 280 278 277 276 275 275 276 278 281 283 285 288 292 295 297 298 299 300 303 305 307 308 310 311 312 313 314 315 316 316 315 315 315 314
Height
3056 3056 3056 3056 3058 3060 3061 3062 3064 3066 3066 3066 3068 3070 3071 3073 3075 3076 3076 3078 3081 3084 3088 3089 3091 3095 3097 3100 3103 3105 3107 3109 3111 3114 3116 3120 3122 3124 3124 3126 3128 3128 3129 3130 3133 3135 3135 3136 3137 3140 3142 3144 3145 3147 3148 3150 3151 3152 3152 3153 3155 3156 3157 3157 3158 3159 3160 3160 3161 3162 3162 3163 3163 3164 3164 3164 3164 3164 3163 3163 3163 3162 3161 3161 3160 3160
3054 3053 3053 3054 3057 3059 3060 3062 3063 3065 3065 3065 3067 3068 3071 3071 3072 3073 3074 3077 3080 3083 3087 3089 3092 3095 3097 3099 3102 3103 3105 3108 3110 3112 3114 3117 3120 3122 3123 3125 3126 3128 3129 3130 3133 3135 3135 3136 3138 3139 3141 3143 3144 3145 3146 3148 3149 3150 3151 3152 3154 3154 3155 3156 3157 3157 3158 3159 3159 3160 3160 3161 3161 3161 3162 3161 3161 3161 3161 3161 3160 3160 3159 3159 3158 3157
3051 3049 3050 3053 3055 3057 3058 3060 3061 3062 3062 3064 3065 3067 3069 3067 3066 3071 3073 3075 3078 3082 3085 3089 3091 3095 3097 3099 3101 3102 3104 3107 3109 3110 3112 3115 3118 3120 3122 3123 3125 3127 3128 3130 3132 3134 3135 3136 3137 3138 3140 3142 3143 3144 3145 3147 3148 3149 3150 3151 3152 3153 3154 3155 3155 3156 3157 3157 3157 3158 3158 3159 3159 3159 3159 3159 3159 3159 3158 3158 3158 3157 3157 3156 3156 3155
3048 3047 3049 3051 3053 3054 3056 3057 3059 3060 3060 3061 3063 3064 3067 3065 3063 3067 3070 3072 3077 3081 3083 3087 3091 3094 3096 3099 3100 3102 3103 3105 3108 3110 3111 3114 3117 3119 3120 3122 3124 3126 3127 3128 3130 3132 3133 3135 3136 3137 3139 3140 3142 3142 3143 3145 3146 3147 3149 3150 3150 3151 3152 3153 3153 3154 3155 3155 3155 3156 3156 3156 3156 3156 3156 3156 3156 3156 3156 3156 3155 3155 3154 3154 3153 3152
3045 3046 3048 3050 3051 3052 3054 3055 3057 3058 3058 3059 3062 3063 3064 3064 3062 3064 3067 3071 3077 3081 3083 3086 3091 3094 3096 3098 3100 3101 3103 3105 3107 3109 3111 3113 3115 3117 3119 3121 3123 3124 3126 3127 3129 3130 3132 3133 3135 3136 3138 3139 3140 3140 3141 3142 3144 3145 3147 3148 3149 3149 3150 3151 3151 3152 3152 3153 3153 3153 3154 3154 3154 3154 3154 3154 3153 3153 3153 3153 3153 3152 3151 3151 3150 3149
3043 3046 3048 3048 3049 3051 3052 3053 3055 3056 3056 3058 3060 3061 3062 3063 3063 3063 3066 3069 3074 3080 3083 3085 3091 3096 3096 3097 3099 3100 3102 3104 3105 3108 3110 3112 3114 3116 3119 3121 3122 3123 3125 3126 3127 3129 3130 3132 3133 3135 3136 3137 3138 3139 3140 3141 3142 3143 3145 3146 3147 3147 3148 3148 3149 3149 3150 3150 3151 3151 3151 3151 3151 3151 3151 3151 3150 3150 3150 3150 3149 3149 3148 3147 3147 3146
3042 3045 3047 3048 3048 3049 3051 3052 3053 3055 3055 3057 3059 3060 3062 3063 3064 3064 3065 3068 3072 3077 3082 3084 3087 3093 3096 3096 3098 3099 3101 3103 3104 3106 3108 3111 3113 3116 3117 3119 3121 3122 3123 3124 3126 3127 3129 3130 3132 3134 3135 3136 3137 3137 3138 3139 3140 3142 3143 3144 3145 3145 3146 3146 3146 3147 3147 3148 3148 3149 3149 3149 3149 3149 3148 3147 3147 3147 3147 3147 3146 3146 3145 3145 3144 3143
3040 3044 3045 3047 3047 3048 3049 3050 3052 3055 3055 3056 3058 3061 3062 3063 3065 3065 3065 3068 3072 3076 3081 3083 3085 3089 3093 3095 3096 3098 3099 3101 3102 3104 3106 3109 3111 3113 3115 3117 3118 3119 3121 3122 3124 3126 3127 3129 3130 3132 3133 3134 3135 3135 3136 3137 3138 3139 3141 3142 3143 3143 3144 3144 3145 3145 3146 3146 3146 3146 3146 3146 3146 3146 3145 3145 3145 3145 3145 3144 3144 3143 3143 3142 3141 3140
3040 3042 3043 3046 3046 3046 3047 3049 3053 3055 3055 3056 3058 3061 3063 3065 3068 3068 3066 3068 3072 3076 3080 3083 3084 3088 3091 3093 3094 3096 3097 3098 3100 3102 3105 3107 3109 3111 3113 3115 3116 3118 3119 3121 3123 3125 3126 3127 3129 3130 3131 3132 3133 3134 3135 3136 3137 3138 3139 3140 3141 3141 3142 3143 3143 3143 3144 3144 3144 3144 3144 3144 3144 3144 3143 3143 3143 3143 3143 3142 3141 3141 3140 3139 3138 3137
3040 3041 3043 3045 3045 3045 3047 3050 3053 3054 3055 3058 3059 3061 3063 3066 3069 3069 3067 3068 3072 3076 3079 3081 3083 3086 3090 3091 3091 3093 3094 3095 3097 3100 3103 3106 3108 3110 3112 3114 3115 3117 3119 3121 3122 3124 3125 3126 3127 3128 3129 3130 3131 3133 3134 3135 3136 3136 3137 3138 3139 3139 3140 3140 3141 3141 3142 3142 3142 3142 3142 3142 3142 3142 3142 3141 3141 3141 3140 3140 3139 3138 3137 3137 3136 3135
3039 3040 3041 3043 3044 3045 3048 3050 3052 3053 3056 3058 3059 3059 3061 3065 3067 3068 3068 3068 3071 3076 3078 3080 3082 3084 3087 3089 3089 3091 3092 3094 3096 3098 3101 3104 3107 3109 3111 3113 3115 3117 3118 3120 3121 3122 3124 3125 3126 3127 3128 3129 3130 3132 3133 3134 3135 3135 3136 3136 3137 3137 3138 3138 3139 3139 3140 3140 3140 3140 3140 3140 3140 3140 3139 3139 3139 3138 3138 3137 3136 3136 3135 3134 3133 3132
3038 3039 3041 3042 3044 3046 3048 3049 3051 3053 3055 3057 3059 3059 3060 3064 3067 3069 3069 3070 3072 3075 3077 3080 3082 3084 3086 3088 3089 3091 3093 3095 3096 3098 3101 3103 3106 3108 3111 3112 3114 3116 3117 3119 3121 3122 3124 3125 3126 3126 3127 3128 3129 3131 3132 3132 3133 3133 3134 3134 3135 3135 3136 3136 3137 3137 3137 3137 3137 3138 3137 3137 3137 3137 3137 3136 3136 3136 3135 3135 3134 3133 3133 3132 3131 3129
3038 3039 3041 3042 3044 3045 3047 3049 3050 3053 3055 3057 3059 3059 3059 3063 3067 3069 3070 3072 3074 3076 3077 3080 3082 3085 3086 3088 3089 3091 3093 3095 3097 3099 3101 3104 3106 3108 3110 3112 3114 3116 3117 3119 3121 3122 3124 3125 3125 3126 3126 3127 3128 3129 3130 3130 3130 3131 3132 3132 3133 3133 3134 3134 3134 3134 3134 3135 3135 3135 3134 3134 3134 3134 3134 3133 3133 3133 3132 3132 3131 3130 3129 3128 3127 3126
3039 3040 3041 3042 3044 3045 3047 3048 3049 3052 3054 3056 3058 3059 3060 3062 3065 3069 3071 3073 3075 3077 3079 3080 3082 3084 3086 3087 3089 3090 3092 3094 3096 3098 3100 3102 3105 3107 3109 3111 3113 3115 3116 3117 3119 3120 3122 3123 3124 3124 3125 3126 3126 3127 3128 3128 3129 3129 3130 3130 3131 3131 3132 3132 3132 3132 3132 3132 3132 3132 3132 3131 3131 3131 3130 3130 3129 3129 3128 3128 3127 3126 3125 3124 3122 3121
3039 3040 3040 3041 3043 3044 3046 3048 3050 3052 3055 3057 3058 3059 3060 3060 3062 3066 3070 3071 3073 3076 3079 3081 3083 3083 3084 3085 3087 3088 3090 3092 3093 3096 3098 3100 3102 3104 3107 3109 3111 3112 3114 3116 3117 3118 3119 3120 3121 3122 3123 3123 3124 3124 3125 3126 3127 3128 3128 3128 3129 3129 3130 3129 3129 3129 3129 3129 3129 3129 3129 3128 3128 3127 3127 3126 3126 3125 3124 3123 3123 3121 3120 3119 3118 3117
3038 3039 3039 3041 3043 3045 3047 3049 3052 3055 3057 3058 3059 3060 3060 3060 3061 3065 3068 3069 3071 3076 3080 3082 3081 3081 3082 3083 3086 3087 3088 3089 3091 3094 3095 3097 3099 3101 3103 3106 3108 3109 3111 3113 3115 3116 3117 3117 3118 3119 3120 3121 3121 3122 3123 3124 3125 3126 3126 3126 3127 3127 3127 3127 3127 3126 3126 3126 3126 3126 3125 3125 3125 3124 3123 3123 3122 3121 3120 3119 3118 3117 3116 3115 3113 3112
3038 3039 3040 3042 3044 3046 3048 3051 3054 3057 3058 3059 3060 3060 3060 3062 3063 3065 3068 3071 3073 3077 3081 3081 3080 3080 3081 3082 3083 3085 3086 3087 3089 3091 3093 3095 3097 3099 3100 3103 3105 3106 3108 3110 3111 3112 3113 3114 3115 3116 3117 3118 3119 3119 3120 3122 3123 3123 3123 3124 3124 3124 3124 3124 3124 3124 3123 3123 3123 3123 3122 3122 3122 3121 3120 3119 3118 3118 3117 3115 3114 3113 3112 3110 3109 3107
3038 3039 3042 3044 3045 3048 3050 3053 3056 3058 3059 3059 3060 3061 3061 3063 3065 3065 3069 3074 3076 3079 3081 3081 3080 3080 3080 3080 3079 3081 3082 3083 3085 3087 3090 3092 3094 3096 3098 3100 3102 3103 3105 3106 3108 3109 3110 3112 3113 3114 3115 3116 3117 3118 3118 3119 3120 3121 3121 3121 3122 3122 3122 3121 3121 3121 3121 3120 3120 3120 3120 3119 3119 3118 3117 3116 3115 3114 3113 3112 3110 3109 3107 3106 3105 3103
3039 3041 3045 3046 3047 3050 3053 3055 3057 3058 3059 3060 3060 3061 3062 3063 3064 3065 3068 3072 3074 3079 3081 3080 3080 3079 3077 3076 3075 3077 3078 3080 3083 3085 3087 3088 3090 3092 3094 3096 3099 3101 3102 3104 3105 3107 3108 3110 3111 3112 3114 3115 3115 3116 3117 3117 3118 3118 3119 3119 3119 3119 3119 3118 3118 3118 3118 3118 3118 3118 3117 3117 3116 3115 3114 3113 3111 3110 3109 3108 3106 3105 3104 3102 3101 3099
3040 3041 3046 3049 3050 3052 3054 3056 3057 3057 3058 3060 3061 3061 3061 3061 3063 3064 3066 3068 3071 3077 3080 3080 3081 3076 3072 3073 3074 3075 3077 3079 3081 3082 3084 3085 3088 3090 3092 3094 3097 3099 3101 3102 3104 3105 3107 3108 3109 3110 3111 3112 3113 3114 3115 3115 3116 3116 3116 3116 3116 3116 3116 3116 3115 3115 3115 3115 3115 3114 3114 3113 3112 3111 3110 3109 3107 3106 3105 3104 3102 3101 3100 3098 3097 3095
3042 3041 3045 3050 3052 3053 3055 3056 3057 3058 3058 3059 3060 3060 3060 3060 3062 3064 3067 3067 3069 3073 3076 3079 3078 3072 3068 3070 3072 3075 3077 3078 3079 3080 3082 3085 3087 3088 3090 3093 3095 3098 3099 3101 3102 3104 3105 3106 3107 3108 3109 3110 3111 3111 3112 3112 3113 3113 3114 3114 3114 3114 3113 3113 3112 3112 3112 3112 3111 3110 3109 3109 3108 3107 3106 3105 3104 3103 3102 3100 3099 3097 3096 3094 3092 3090
3044 3043 3045 3050 3053 3054 3055 3057 3057 3058 3059 3059 3060 3060 3060 3061 3061 3063 3066 3067 3067 3069 3071 3073 3072 3067 3067 3068 3069 3072 3075 3076 3078 3080 3082 3084 3086 3087 3089 3092 3095 3096 3097 3099 3100 3101 3102 3104 3105 3105 3106 3107 3108 3109 3109 3110 3110 3110 3111 3111 3111 3110 3110 3110 3109 3109 3108 3108 3107 3107 3106 3105 3104 3103 3102 3101 3100 3099 3098 3096 3095 3093 3091 3089 3087 3086
3046 3047 3048 3050 3053 3055 3057 3058 3058 3058 3059 3060 3060 3061 3061 3062 3062 3062 3064 3064 3065 3067 3068 3070 3068 3065 3066 3068 3068 3070 3073 3075 3078 3080 3081 3083 3084 3086 3089 3091 3092 3093 3095 3096 3097 3099 3100 3101 3102 3103 3104 3105 3105 3106 3106 3107 3107 3107 3108 3108 3107 3107 3107 3107 3106 3106 3105 3105 3104 3104 3103 3102 3101 3100 3099 3098 3097 3095 3094 3092 3090 3088 3087 3085 3083 3082
3048 3050 3051 3053 3056 3057 3058 3059 3059 3058 3059 3060 3061 3061 3062 3063 3063 3063 3063 3063 3064 3065 3067 3069 3068 3064 3064 3066 3067 3069 3071 3073 3075 3077 3080 3082 3083 3085 3087 3089 3090 3091 3092 3094 3095 3096 3097 3098 3099 3100 3101 3102 3103 3103 3104 3104 3104 3104 3105 3105 3105 3104 3104 3104 3103 3103 3102 3102 3101 3101 3100 3099 3098 3096 3095 3094 3092 3090 3089 3087 3086 3084 3083 3081 3080 3078
3048 3050 3051 3053 3057 3059 3059 3059 3059 3059 3059 3060 3061 3062 3062 3063 3064 3064 3063 3064 3065 3065 3066 3067 3067 3063 3063 3064 3066 3067 3069 3071 3073 3075 3077 3079 3081 3083 3085 3087 3088 3089 3090 3091 3092 3093 3095 3096 3097 3099 3099 3100 3100 3101 3101 3101 3101 3102 3102 3102 3102 3102 3101 3101 3100 3100 3099 3099 3098 3097 3096 3095 3094 3092 3091 3089 3088 3086 3085 3083 3082 3080 3079 3077 3075 3073
3049 3050 3052 3053 3054 3056 3056 3056 3056 3056 3058 3059 3060 3061 3061 3062 3063 3063 3064 3064 3065 3065 3066 3066 3065 3063 3063 3064 3065 3067 3068 3070 3072 3074 3075 3077 3079 3081 3083 3085 3085 3086 3087 3089 3090 3092 3093 3094 3095 3096 3097 3097 3097 3098 3098 3098 3099 3099 3099 3099 3099 3099 3099 3098 3097 3097 3096 3095 3094 3093 3092 3091 3090 3088 3087 3085 3084 3083 3081 3080 3078 3076 3074 3072 3070 3068
3051 3052 3053 3054 3054 3054 3053 3053 3054 3055 3057 3058 3059 3060 3060 3061 3062 3063 3063 3063 3064 3065 3065 3064 3064 3064 3064 3065 3065 3067 3068 3069 3071 3072 3074 3075 3077 3078 3080 3081 3082 3084 3085 3087 3088 3089 3090 3091 3092 3093 3093 3094 3094 3094 3095 3095 3096 3096 3096 3096 3096 3096 3096 3095 3094 3094 3093 3092 3090 3089 3088 3087 3086 3084 3083 3082 3080 3079 3078 3076 3074 3071 3069 3067 3064 3062
3053 3054 3054 3055 3055 3055 3054 3054 3055 3055 3057 3058 3059 3059 3060 3061 3062 3063 3063 3063 3063 3064 3063 3063 3064 3064 3065 3065 3066 3067 3068 3069 3070 3072 3073 3075 3076 3077 3078 3079 3080 3081 3083 3084 3085 3087 3088 3089 3089 3090 3090 3091 3091 3092 3092 3093 3093 3094 3094 3094 3094 3093 3092 3092 3091 3090 3089 3088 3087 3086 3084 3083 3082 3080 3079 3078 3077 3075 3073 3071 3068 3066 3063 3061 3059 3056
3055 3056 3056 3056 3056 3056 3056 3056 3056 3056 3057 3058 3059 3060 3060 3061 3062 3062 3063 3063 3063 3063 3063 3063 3063 3064 3064 3065 3066 3067 3069 3070 3071 3072 3073 3074 3075 3075 3076 3077 3078 3079 3080 3081 3083 3084 3085 3086 3086 3087 3088 3088 3089 3089 3090 3090 3091 3091 3091 3091 3090 3089 3089 3088 3088 3087 3086 3085 3083 3082 3080 3079 3078 3076 3075 3074 3072 3070 3068 3065 3063 3060 3058 3056 3053 3050
3055 3056 3056 3056 3056 3056 3057 3057 3057 3058 3058 3059 3059 3060 3060 3061 3061 3062 3062 3062 3063 3063 3063 3063 3063 3063 3064 3064 3065 3066 3067 3068 3069 3070 3070 3071 3072 3073 3074 3075 3076 3077 3078 3079 3081 3082 3083 3084 3084 3084 3085 3086 3086 3087 3087 3087 3088 3088 3088 3087 3086 3086 3086 3085 3084 3083 3082 3081 3079 3078 3076 3075 3073 3072 3071 3069 3067 3065 3062 3060 3057 3055 3053 3051 3048 3045
3055 3055 3056 3056 3056 3057 3057 3058 3058 3059 3059 3059 3059 3059 3059 3060 3060 3060 3061 3061 3061 3061 3062 3062 3062 3062 3063 3063 3064 3064 3065 3066 3066 3067 3068 3069 3070 3071 3072 3073 3074 3075 3076 3078 3079 3080 3081 3081 3081 3081 3082 3083 3083 3083 3084 3084 3084 3084 3084 3083 3083 3083 3082 3081 3080 3079 3077 3076 3074 3073 3071 3070 3068 3067 3066 3064 3062 3059 3057 3054 3052 3050 3048 3046 3043 3040
3054 3054 3055 3055 3056 3056 3057 3057 3058 3058 3058 3058 3057 3057 3058 3058 3058 3058 3059 3059 3059 3060 3060 3060 3060 3061 3062 3062 3063 3063 3064 3065 3066 3066 3067 3068 3069 3070 3071 3072 3073 3074 3075 3076 3077 3078 3078 3078 3079 3079 3080 3080 3080 3080 3080 3080 3081 3081 3080 3080 3079 3079 3078 3077 3076 3074 3073 3071 3069 3068 3067 3065 3064 3063 3061 3059 3057 3054 3052 3050 3048 3046 3043 3041 3038 3035
3055 3054 3055 3055 3055 3055 3056 3056 3056 3057 3057 3055 3053 3054 3055 3055 3056 3056 3056 3056 3057 3058 3058 3058 3059 3060 3060 3061 3061 3062 3063 3064 3065 3066 3067 3067 3068 3069 3070 3071 3071 3072 3073 3074 3074 3075 3076 3076 3076 3076 3077 3076 3077 3077 3077 3077 3077 3077 3077 3076 3076 3075 3074 3073 3071 3069 3068 3067 3065 3064 3062 3061 3060 3058 3056 3054 3051 3049 3047 3045 3043 3040 3038 3036 3033 3030
3056 3056 3056 3056 3056 3056 3056 3056 3056 3056 3054 3051 3050 3051 3051 3051 3052 3052 3052 3054 3054 3054 3055 3055 3057 3058 3058 3059 3060 3060 3061 3062 3063 3064 3064 3065 3065 3066 3067 3068 3068 3069 3070 3070 3071 3072 3072 3073 3073 3073 3073 3073 3073 3073 3073 3073 3074 3073 3073 3072 3071 3071 3069 3068 3066 3065 3063 3062 3060 3059 3058 3056 3055 3053 3051 3049 3047 3045 3043 3040 3037 3035 3032 3029 3027 3023
3055 3056 3057 3057 3057 3057 3057 3057 3057 3054 3051 3049 3049 3049 3049 3049 3049 3049 3049 3050 3051 3051 3052 3053 3054 3056 3056 3056 3057 3057 3058 3059 3059 3059 3060 3061 3062 3063 3063 3064 3065 3066 3066 3067 3068 3069 3069 3069 3070 3070 3070 3070 3069 3069 3069 3070 3069 3069 3068 3067 3066 3065 3064 3063 3061 3060 3058 3057 3055 3054 3053 3051 3050 3048 3046 3044 3042 3040 3037 3034 3031 3029 3026 3023 3020 3017
3053 3054 3055 3056 3056 3056 3057 3058 3055 3050 3048 3048 3048 3048 3047 3048 3048 3047 3047 3047 3048 3048 3049 3050 3052 3053 3053 3053 3053 3054 3054 3055 3055 3056 3057 3058 3058 3059 3060 3061 3062 3062 3063 3064 3065 3065 3066 3066 3066 3066 3066 3065 3065 3064 3065 3065 3065 3064 3063 3062 3061 3060 3059 3058 3056 3055 3054 3053 3051 3050 3048 3047 3045 3043 3041 3039 3037 3034 3032 3028 3025 3023 3020 3018 3015 3012
3051 3051 3052 3053 3054 3054 3055 3055 3052 3049 3047 3047 3046 3046 3046 3046 3046 3046 3045 3045 3046 3046 3046 3047 3049 3050 3050 3050 3051 3051 3052 3053 3052 3053 3054 3055 3056 3056 3057 3058 3058 3058 3059 3060 3060 3061 3061 3061 3061 3061 3061 3060 3060 3060 3061 3060 3059 3059 3058 3057 3056 3055 3054 3053 3052 3051 3049 3049 3047 3045 3044 3042 3040 3038 3036 3034 3031 3029 3026 3023 3020 3017 3015 3012 3010 3007
3050 3050 3050 3050 3050 3051 3051 3051 3051 3049 3046 3044 3044 3045 3045 3045 3046 3046 3044 3043 3044 3044 3044 3044 3046 3047 3047 3048 3048 3050 3050 3049 3049 3051 3053 3052 3052 3053 3053 3054 3054 3055 3055 3056 3056 3056 3057 3057 3057 3057 3056 3056 3056 3056 3056 3055 3054 3054 3053 3053 3052 3051 3050 3049 3048 3046 3045 3044 3042 3040 3039 3037 3035 3033 3031 3028 3026 3023 3020 3018 3015 3012 3010 3007 3004 3001
3048 3048 3048 3048 3048 3049 3049 3049 3048 3045 3042 3041 3042 3043 3044 3044 3044 3045 3044 3041 3040 3041 3042 3042 3043 3044 3044 3045 3046 3047 3046 3046 3047 3050 3050 3048 3049 3050 3050 3051 3051 3051 3052 3052 3052 3052 3053 3053 3053 3052 3052 3051 3052 3052 3051 3050 3049 3049 3049 3049 3047 3046 3046 3045 3043 3042 3041 3040 3037 3035 3034 3032 3030 3028 3025 3022 3020 3018 3015 3012 3010 3007 3005 3002 2998 2995
3046 3046 3046 3046 3046 3046 3047 3047 3044 3041 3039 3040 3041 3041 3042 3042 3043 3044 3043 3039 3038 3039 3040 3040 3041 3041 3042 3042 3042 3043 3043 3043 3045 3046 3045 3044 3046 3047 3047 3048 3048 3048 3048 3048 3048 3049 3048 3048 3048 3048 3047 3048 3048 3047 3046 3045 3045 3045 3045 3044 3043 3042 3042 3041 3039 3038 3037 3035 3033 3031 3029 3027 3024 3022 3019 3017 3015 3013 3010 3008 3005 3002 2999 2996 2992 2989
3045 3045 3044 3044 3043 3044 3044 3043 3040 3037 3037 3038 3038 3038 3039 3040 3041 3041 3039 3037 3037 3038 3038 3038 3039 3039 3039 3040 3039 3040 3041 3041 3042 3041 3041 3042 3043 3044 3044 3044 3044 3044 3044 3044 3044 3044 3044 3043 3044 3044 3044 3044 3043 3042 3042 3041 3041 3041 3040 3039 3038 3038 3037 3035 3034 3034 3032 3030 3028 3026 3024 3022 3019 3017 3014 3012 3010 3008 3005 3003 3000 2997 2993 2990 2986 2983
3043 3043 3041 3041 3041 3041 3041 3041 3038 3034 3032 3034 3034 3035 3036 3037 3036 3035 3034 3034 3035 3035 3035 3036 3036 3036 3037 3037 3037 3038 3038 3038 3038 3038 3039 3039 3040 3040 3040 3040 3039 3040 3040 3040 3040 3039 3039 3039 3039 3039 3039 3039 3038 3037 3037 3036 3036 3036 3036 3035 3035 3034 3032 3030 3030 3029 3027 3025 3023 3021 3019 3017 3014 3012 3009 3007 3005 3003 3000 2997 2994 2991 2987 2984 2980 2977
3041 3040 3038 3037 3038 3038 3038 3039 3038 3032 3029 3030 3031 3032 3033 3033 3032 3032 3032 3032 3032 3033 3033 3033 3034 3034 3034 3034 3034 3034 3034 3034 3035 3035 3035 3035 3036 3036 3036 3035 3036 3036 3035 3035 3035 3035 3035 3035 3035 3035 3035 3034 3033 3033 3032 3032 3032 3032 3031 3031 3030 3028 3026 3026 3025 3024 3022 3020 3018 3016 3014 3011 3009 3007 3005 3002 3000 2997 2994 2992 2988 2985 2981 2978 2974 2972
3037 3037 3035 3034 3035 3035 3034 3033 3032 3029 3028 3029 3029 3029 3030 3030 3030 3030 3030 3030 3030 3030 3030 3030 3030 3030 3030 3030 3031 3030 3031 3031 3031 3031 3031 3032 3032 3032 3032 3031 3032 3031 3031 3032 3031 3031 3031 3031 3031 3030 3030 3029 3028 3028 3027 3027 3027 3026 3026 3026 3025 3023 3022 3021 3020 3019 3017 3015 3013 3010 3008 3006 3004 3002 3000 2997 2994 2992 2989 2986 2982 2979 2976 2972 2969 2966
3034 3033 3033 3032 3032 3030 3028 3027 3027 3026 3027 3027 3027 3028 3028 3027 3027 3027 3027 3027 3027 3027 3027 3027 3027 3027 3026 3026 3027 3027 3027 3028 3028 3027 3027 3028 3028 3028 3028 3028 3028 3028 3028 3028 3027 3027 3027 3026 3026 3025 3024 3024 3023 3022 3022 3022 3021 3021 3021 3021 3019 3017 3017 3016 3015 3013 3011 3009 3007 3005 3003 3001 2999 2997 2994 2992 2989 2986 2983 2980 2977 2974 2970 2967 2964 2961
3032 3032 3031 3029 3029 3027 3024 3024 3025 3024 3024 3024 3024 3025 3025 3024 3024 3024 3023 3024 3024 3023 3023 3024 3024 3023 3024 3023 3023 3024 3024 3024 3024 3024 3023 3023 3024 3024 3024 3024 3024 3024 3024 3024 3023 3023 3022 3022 3021 3020 3019 3019 3018 3017 3017 3017 3016 3016 3016 3015 3013 3012 3012 3011 3009 3008 3006 3004 3002 3000 2998 2996 2994 2991 2989 2986 2983 2980 2977 2974 2971 2968 2965 2962 2959 2956
3030 3029 3027 3026 3025 3024 3021 3021 3022 3022 3022 3022 3021 3021 3021 3021 3021 3020 3020 3020 3020 3019 3020 3020 3020 3020 3020 3020 3020 3021 3021 3020 3020 3020 3020 3019 3020 3020 3020 3020 3020 3020 3019 3019 3018 3018 3017 3016 3016 3015 3015 3014 3013 3012 3012 3011 3011 3011 3010 3009 3008 3007 3006 3005 3004 3002 3001 2999 2997 2995 2993 2991 2989 2986 2983 2981 2978 2975 2971 2968 2965 2963 2960 2957 2953 2950
3028 3026 3024 3023 3022 3020 3018 3019 3020 3020 3019 3019 3018 3017 3017 3017 3017 3016 3016 3016 3016 3016 3016 3016 3016 3016 3016 3016 3017 3016 3016 3016 3016 3016 3016 3015 3015 3015 3015 3015 3015 3015 3014 3014 3013 3012 3012 3011 3011 3010 3010 3009 3008 3007 3006 3006 3005 3005 3004 3003 3002 3002 3001 3000 2999 2997 2996 2994 2992 2990 2988 2985 2983 2981 2978 2975 2972 2969 2966 2963 2960 2957 2955 2951 2948 2945
3026 3023 3022 3021 3019 3018 3016 3017 3018 3017 3015 3016 3015 3013 3013 3013 3013 3012 3012 3012 3012 3013 3012 3012 3012 3011 3011 3012 3012 3011 3011 3012 3012 3011 3011 3011 3011 3010 3010 3010 3009 3009 3008 3008 3007 3007 3006 3006 3005 3005 3005 3004 3003 3002 3001 3000 3000 2999 2998 2997 2997 2997 2996 2995 2993 2992 2991 2989 2986 2984 2982 2980 2978 2975 2973 2970 2967 2964 2961 2958 2955 2952 2949 2946 2943 2940
3022 3020 3020 3019 3017 3015 3014 3015 3015 3012 3011 3013 3013 3010 3009 3009 3009 3009 3009 3009 3009 3009 3009 3008 3007 3007 3007 3007 3007 3006 3006 3007 3007 3006 3005 3006 3006 3006 3005 3004 3003 3003 3002 3002 3001 3001 3000 3000 3000 3000 2999 2999 2997 2996 2995 2995 2994 2993 2992 2992 2992 2992 2991 2989 2988 2987 2985 2983 2981 2978 2976 2974 2972 2970 2967 2965 2962 2959 2956 2953 2950 2947 2944 2941 2938 2935
3019 3018 3019 3018 3014 3012 3012 3012 3010 3007 3006 3009 3008 3006 3006 3006 3005 3005 3005 3005 3004 3004 3004 3003 3003 3003 3003 3003 3002 3001 3001 3002 3001 3000 2999 3000 3001 3000 2999 2998 2997 2997 2996 2996 2995 2994 2995 2995 2994 2994 2994 2993 2992 2990 2990 2989 2988 2988 2987 2986 2986 2986 2985 2984 2982 2981 2979 2977 2975 2973 2971 2969 2967 2965 2962 2959 2956 2954 2951 2948 2945 2941 2938 2935 2933 2931